Location: Boiro
(42.6475°N, 8.8834°W)
Time: 23:13:05
(UTC+01:00)

Altair - Pass Details

Date: 08 December 2021
Orbit: 1501 x 1683 km, 47.2° (Epoch: 18 January)

Event Time Altitude Azimuth Distance (km) Brightness Sun altitude
Rises 14:33:38 0° 207° (SSW) 4,848 11.5 22.8°
Reaches altitude 10° 14:37:03 10° 201° (SSW) 3,840 11.7 22.6°
Maximum altitude 14:45:50 40° 136° (SE) 2,196 8.9 22.1°
Drops below altitude 10° 14:54:19 10° 72° (ENE) 3,723 9.2 21.6°
Sets 14:57:34 0° 65° (ENE) 4,687 9.6 21.4°
